When you browse on this site, cookies collect data to enhance your experience and personalize the content and advertising you see.
Visit our Privacy Policy to learn more. By continuing to use the site, you agree to this use of cookies and data.
  • In Hungary
  • List of Countries
  • For 7 days
  • Water Temperature
  • Satellite Maps
  • Weather Map
  • News
  • Weather Widgets
  • user-avatar
    Login

    Hourly Weather Acri

    Today, 12 December, Wednesday

    Time Temperature Precipitation Wind Pressure Humidity
    00:00 +2°C° 0 mm 2 mps 699 mmHg 64%
    01:00 +2°C° 0 mm 2 mps 699 mmHg 64%
    02:00 +2°C° 0 mm 2 mps 699 mmHg 64%
    03:00 +2°C° 0 mm 2 mps 699 mmHg 63%
    04:00 +2°C° 0 mm 2 mps 699 mmHg 62%
    05:00 +2°C° 0 mm 2 mps 699 mmHg 61%
    06:00 +2°C° 0 mm 2 mps 699 mmHg 61%
    07:00 +2°C° 0 mm 2 mps 699 mmHg 60%
    08:00 +3°C° 0 mm 2 mps 700 mmHg 55%
    09:00 +5°C° 0 mm 2 mps 700 mmHg 50%
    10:00 +8°C° 0 mm 1 mps 701 mmHg 45%
    11:00 +9°C° 0 mm 1 mps 701 mmHg 44%
    12:00 +9°C° 0 mm 1 mps 701 mmHg 43%
    13:00 +9°C° 0 mm 2 mps 701 mmHg 42%
    14:00 +8°C° 0 mm 2 mps 700 mmHg 47%
    15:00 +7°C° 0 mm 2 mps 700 mmHg 52%
    16:00 +6°C° 0 mm 2 mps 700 mmHg 57%
    17:00 +5°C° 0 mm 2 mps 700 mmHg 61%
    18:00 +5°C° 0 mm 2 mps 700 mmHg 64%
    19:00 +5°C° 0 mm 2 mps 699 mmHg 68%
    20:00 +5°C° 0.1 mm 2 mps 699 mmHg 70%
    21:00 +4°C° 0.1 mm 3 mps 699 mmHg 73%
    22:00 +4°C° 0.1 mm 3 mps 699 mmHg 76%
    23:00 +4°C° 0.6 mm 3 mps 699 mmHg 79%

    Tomorrow, 13 December, Thursday

    Time Temperature Precipitation Wind Pressure Humidity
    00:00 +4°C° 0.6 mm 3 mps 699 mmHg 82%
    01:00 +4°C° 0.6 mm 3 mps 698 mmHg 85%
    02:00 +4°C° 1 mm 3 mps 698 mmHg 87%
    03:00 +4°C° 1 mm 3 mps 698 mmHg 89%
    04:00 +3°C° 1 mm 3 mps 697 mmHg 91%
    05:00 +4°C° 0.7 mm 3 mps 697 mmHg 90%
    06:00 +4°C° 0.7 mm 3 mps 697 mmHg 90%
    07:00 +4°C° 0.7 mm 3 mps 697 mmHg 90%
    08:00 +5°C° 0.1 mm 3 mps 697 mmHg 87%
    09:00 +5°C° 0.1 mm 3 mps 697 mmHg 85%
    10:00 +7°C° 0.1 mm 3 mps 697 mmHg 82%
    11:00 +8°C° 0.2 mm 3 mps 697 mmHg 82%
    12:00 +8°C° 0.2 mm 3 mps 696 mmHg 81%
    13:00 +8°C° 0.2 mm 3 mps 696 mmHg 81%
    14:00 +8°C° 0.2 mm 3 mps 696 mmHg 83%
    15:00 +8°C° 0.2 mm 3 mps 696 mmHg 85%
    16:00 +8°C° 0.2 mm 2 mps 695 mmHg 87%
    17:00 +7°C° 0.1 mm 2 mps 696 mmHg 89%
    18:00 +7°C° 0.1 mm 2 mps 696 mmHg 90%
    19:00 +7°C° 0.1 mm 2 mps 696 mmHg 91%
    20:00 +7°C° 0.1 mm 2 mps 696 mmHg 90%
    21:00 +7°C° 0.1 mm 2 mps 696 mmHg 90%
    22:00 +7°C° 0.1 mm 2 mps 696 mmHg 89%
    23:00 +7°C° 0 mm 2 mps 695 mmHg 87%

    Day after tomorrow, 14 December, Friday

    Time Temperature Precipitation Wind Pressure Humidity
    00:00 +7°C° 0 mm 2 mps 695 mmHg 86%
    01:00 +7°C° 0 mm 2 mps 695 mmHg 85%
    02:00 +7°C° 0 mm 2 mps 695 mmHg 84%
    03:00 +7°C° 0 mm 2 mps 695 mmHg 83%
    04:00 +6°C° 0 mm 2 mps 694 mmHg 82%
    05:00 +6°C° 0 mm 2 mps 694 mmHg 83%
    06:00 +6°C° 0 mm 2 mps 694 mmHg 83%
    07:00 +6°C° 0 mm 2 mps 694 mmHg 84%
    08:00 +7°C° 0 mm 2 mps 694 mmHg 80%
    09:00 +9°C° 0 mm 3 mps 695 mmHg 76%
    10:00 +11°C° 0 mm 3 mps 695 mmHg 72%
    11:00 +11°C° 0 mm 3 mps 695 mmHg 69%
    12:00 +12°C° 0 mm 3 mps 694 mmHg 65%
    13:00 +13°C° 0 mm 3 mps 694 mmHg 61%
    14:00 +12°C° 0 mm 3 mps 694 mmHg 65%
    15:00 +11°C° 0 mm 3 mps 694 mmHg 69%
    16:00 +10°C° 0 mm 2 mps 694 mmHg 73%
    17:00 +10°C° 0 mm 3 mps 694 mmHg 77%
    18:00 +9°C° 0 mm 3 mps 694 mmHg 80%
    19:00 +9°C° 0 mm 3 mps 694 mmHg 83%
    20:00 +9°C° 0.1 mm 3 mps 694 mmHg 84%
    21:00 +9°C° 0.1 mm 3 mps 694 mmHg 85%
    22:00 +8°C° 0.1 mm 3 mps 694 mmHg 86%
    23:00 +8°C° 0.2 mm 3 mps 693 mmHg 87%

    15 December, Saturday

    Time Temperature Precipitation Wind Pressure Humidity
    00:00 +8°C° 0.2 mm 2 mps 693 mmHg 87%
    01:00 +8°C° 0.2 mm 2 mps 693 mmHg 88%
    02:00 +8°C° 0.1 mm 2 mps 693 mmHg 88%
    03:00 +8°C° 0.1 mm 2 mps 693 mmHg 89%
    04:00 +7°C° 0.1 mm 2 mps 692 mmHg 89%
    05:00 +7°C° 0.2 mm 3 mps 693 mmHg 89%
    06:00 +7°C° 0.2 mm 3 mps 693 mmHg 89%
    07:00 +7°C° 0.2 mm 3 mps 693 mmHg 90%
    08:00 +8°C° 0.2 mm 3 mps 693 mmHg 86%
    09:00 +9°C° 0.2 mm 3 mps 694 mmHg 83%
    10:00 +10°C° 0.2 mm 3 mps 694 mmHg 80%
    11:00 +10°C° 0.1 mm 3 mps 694 mmHg 78%
    12:00 +10°C° 0.1 mm 3 mps 694 mmHg 76%
    13:00 +10°C° 0.1 mm 4 mps 694 mmHg 73%
    14:00 +10°C° 0.2 mm 4 mps 694 mmHg 76%
    15:00 +8°C° 0.2 mm 4 mps 694 mmHg 78%
    16:00 +7°C° 0.2 mm 4 mps 694 mmHg 80%
    17:00 +7°C° 0.3 mm 4 mps 695 mmHg 82%
    18:00 +6°C° 0.3 mm 5 mps 695 mmHg 83%
    19:00 +6°C° 0.3 mm 5 mps 695 mmHg 84%
    20:00 +5°C° 0.3 mm 5 mps 695 mmHg 83%
    21:00 +5°C° 0.3 mm 5 mps 696 mmHg 83%
    22:00 +5°C° 0.3 mm 5 mps 696 mmHg 83%
    23:00 +5°C° 0.3 mm 5 mps 696 mmHg 82%

    16 December, Sunday

    Time Temperature Precipitation Wind Pressure Humidity
    00:00 +3°C° 0.3 mm 5 mps 696 mmHg 81%
    01:00 +3°C° 0.3 mm 5 mps 697 mmHg 79%
    02:00 +3°C° 0.2 mm 5 mps 697 mmHg 78%
    03:00 +2°C° 0.2 mm 5 mps 697 mmHg 77%
    04:00 +2°C° 0.2 mm 5 mps 697 mmHg 76%
    05:00 +1°C° 0 mm 5 mps 697 mmHg 76%
    06:00 +1°C° 0 mm 5 mps 698 mmHg 76%
    07:00 0°C° 0 mm 5 mps 698 mmHg 77%
    08:00 +1°C° 0 mm 5 mps 699 mmHg 72%
    09:00 +3°C° 0 mm 5 mps 699 mmHg 67%
    10:00 +5°C° 0 mm 5 mps 700 mmHg 62%
    11:00 +5°C° 0 mm 5 mps 700 mmHg 60%
    12:00 +6°C° 0 mm 5 mps 700 mmHg 58%
    13:00 +6°C° 0 mm 5 mps 700 mmHg 56%
    14:00 +6°C° 0 mm 5 mps 700 mmHg 59%
    15:00 +5°C° 0 mm 5 mps 700 mmHg 62%
    16:00 +3°C° 0 mm 5 mps 701 mmHg 65%
    17:00 +3°C° 0 mm 4 mps 701 mmHg 68%
    18:00 +1°C° 0 mm 4 mps 701 mmHg 71%
    19:00 0°C° 0 mm 4 mps 702 mmHg 75%
    20:00 0°C° 0 mm 4 mps 702 mmHg 74%
    21:00 0°C° 0 mm 4 mps 702 mmHg 74%
    22:00 +2°C° 0 mm 3 mps 703 mmHg 74%
    23:00 +2°C° 0 mm 3 mps 703 mmHg 74%

    17 December, Monday

    Time Temperature Precipitation Wind Pressure Humidity
    00:00 +2°C° 0 mm 3 mps 703 mmHg 73%
    01:00 +3°C° 0 mm 2 mps 703 mmHg 73%
    02:00 +3°C° 0 mm 2 mps 703 mmHg 73%
    03:00 +3°C° 0 mm 2 mps 703 mmHg 73%
    04:00 +3°C° 0 mm 2 mps 703 mmHg 73%
    05:00 +3°C° 0 mm 2 mps 703 mmHg 73%
    06:00 +3°C° 0 mm 2 mps 703 mmHg 74%
    07:00 +3°C° 0 mm 2 mps 704 mmHg 74%
    08:00 +6°C° 0 mm 1 mps 704 mmHg 69%
    09:00 +8°C° 0 mm 1 mps 704 mmHg 64%
    10:00 +9°C° 0 mm 1 mps 705 mmHg 59%
    11:00 +10°C° 0 mm 1 mps 705 mmHg 57%
    12:00 +10°C° 0 mm 2 mps 704 mmHg 55%
    13:00 +10°C° 0 mm 2 mps 704 mmHg 53%
    14:00 +9°C° 0 mm 2 mps 704 mmHg 58%
    15:00 +8°C° 0 mm 2 mps 704 mmHg 62%
    16:00 +7°C° 0 mm 2 mps 704 mmHg 67%
    17:00 +7°C° 0 mm 2 mps 704 mmHg 68%
    18:00 +6°C° 0 mm 2 mps 704 mmHg 70%
    19:00 +5°C° 0 mm 2 mps 704 mmHg 71%
    20:00 +5°C° 0 mm 2 mps 704 mmHg 72%
    21:00 +5°C° 0 mm 2 mps 704 mmHg 72%
    22:00 +6°C° 0 mm 2 mps 704 mmHg 72%
    23:00 +6°C° 0 mm 2 mps 703 mmHg 74%
    Show more